Hourly Data Report for June 21, 2006

TORONTO CITY
ONTARIO

43°40'00.000" N
79°24'00.000" W
112.50 m
6158355
71508
XTO

Download Data

Hourly Data (June 2006)
Hourly Data Report for June 21, 2006
TIME
LST
Temp Definition
°C
Dew Point Definition
°C
Rel Hum Definition
%
Precip. Amount Definition
mm

Wind Dir Definition
10's deg

Wind Spd Definition
km/h
Visibility Definition
km
Stn Press Definition
kPa
Hmdx Definition


Wind Chill Definition


Weather Definition


00:00 16.4 8.9 61   LegendMM LegendMM   100.26     LegendNANA
01:00 15.1 9.4 69   LegendMM LegendMM   100.33     LegendNANA
02:00 13.9 9.5 75   LegendMM LegendMM   100.39     LegendNANA
03:00 13.5 9.6 77   LegendMM LegendMM   100.40     LegendNANA
04:00 12.8 9.6 81   LegendMM LegendMM   100.39     LegendNANA
05:00 13.2 9.9 80   LegendMM LegendMM   100.44     LegendNANA
06:00 14.8 10.5 75   LegendMM LegendMM   100.43     LegendNANA
07:00 17.3 11.8 70   LegendMM LegendMM   100.47     LegendNANA
08:00 18.1 10.7 62   LegendMM LegendMM   100.39     LegendNANA
09:00 19.0 10.5 58   LegendMM LegendMM   100.31     LegendNANA
10:00 19.6 10.2 55   LegendMM LegendMM   100.35     LegendNANA
11:00 20.4 11.7 57   LegendMM LegendMM   100.42     LegendNANA
12:00 22.0 12.1 53   LegendMM LegendMM   100.39     LegendNANA
13:00 21.3 12.9 59   LegendMM LegendMM   100.39     LegendNANA
14:00 20.7 12.7 60   LegendMM LegendMM   100.32     LegendNANA
15:00 20.4 14.3 68   LegendMM LegendMM   100.14     LegendNANA
16:00 21.6 15.2 67   LegendMM LegendMM   100.14 26   LegendNANA
17:00 21.6 16.1 71   LegendMM LegendMM   100.09 26   LegendNANA
18:00 20.8 16.3 75   LegendMM LegendMM   99.99 26   LegendNANA
19:00 20.6 17.0 80   LegendMM LegendMM   100.00 26   LegendNANA
20:00 20.2 17.1 82   LegendMM LegendMM   99.97 26   LegendNANA
21:00 20.8 17.4 81   LegendMM LegendMM   99.95 26   LegendNANA
22:00 21.0 17.5 80   LegendMM LegendMM   99.88 27   LegendNANA
23:00 21.0 17.5 80   LegendMM LegendMM   99.86 27   LegendNANA

Notes on Data Quality.

Legend

  • E = Estimated
  • M = Missing
  • NA = Not Available*
  • [empty] = Indicates an unobserved value
Date modified: